TimeCDT,TemperatureF,Dew PointF,Humidity,Sea Level PressureIn,VisibilityMPH,Wind Direction,Wind SpeedMPH,Gust SpeedMPH,PrecipitationIn,Events,Conditions,WindDirDegrees,DateUTC
12:55 AM,64.0,55.9,75,30.02,10.0,South,5.8,-,N/A,,Clear,190,2013-07-05 05:55:00
1:55 AM,64.0,55.9,75,30.01,10.0,SSW,4.6,-,N/A,,Clear,200,2013-07-05 06:55:00
2:55 AM,60.1,55.9,86,30.01,10.0,Calm,Calm,-,N/A,,Clear,0,2013-07-05 07:55:00
3:55 AM,57.0,55.9,96,30.01,10.0,Calm,Calm,-,N/A,,Clear,0,2013-07-05 08:55:00
4:55 AM,61.0,57.0,87,30.03,10.0,SE,4.6,-,N/A,,Clear,130,2013-07-05 09:55:00
5:55 AM,57.0,55.9,96,30.04,7.0,SSE,3.5,-,N/A,,Clear,150,2013-07-05 10:55:00
6:55 AM,64.0,60.1,87,30.04,7.0,SSE,3.5,-,N/A,,Clear,150,2013-07-05 11:55:00
7:55 AM,69.1,62.1,78,30.05,8.0,South,5.8,-,N/A,,Clear,170,2013-07-05 12:55:00
8:55 AM,73.0,63.0,71,30.06,10.0,South,8.1,-,N/A,,Clear,170,2013-07-05 13:55:00
9:55 AM,77.0,64.0,64,30.06,10.0,SSE,8.1,-,N/A,,Unknown,150,2013-07-05 14:55:00
10:55 AM,80.1,63.0,56,30.05,10.0,SSW,9.2,-,N/A,,Clear,200,2013-07-05 15:55:00
11:55 AM,82.9,63.0,51,30.04,10.0,South,9.2,-,N/A,,Clear,180,2013-07-05 16:55:00
12:55 PM,84.0,63.0,49,30.03,10.0,South,9.2,-,N/A,,Clear,180,2013-07-05 17:55:00
1:55 PM,84.0,63.0,49,30.02,10.0,SSE,9.2,-,N/A,,Partly Cloudy,160,2013-07-05 18:55:00
2:55 PM,84.9,62.1,46,30.01,10.0,South,8.1,-,N/A,,Clear,180,2013-07-05 19:55:00
3:55 PM,84.9,61.0,44,30.00,10.0,South,9.2,-,N/A,,Clear,180,2013-07-05 20:55:00
4:55 PM,84.9,61.0,44,29.99,10.0,SSE,9.2,-,N/A,,Clear,160,2013-07-05 21:55:00
5:55 PM,84.0,61.0,46,29.98,10.0,South,8.1,-,N/A,,Clear,170,2013-07-05 22:55:00
6:55 PM,82.0,62.1,51,29.97,10.0,South,6.9,-,N/A,,Clear,170,2013-07-05 23:55:00
7:55 PM,77.0,64.0,64,29.97,10.0,SSE,5.8,-,N/A,,Clear,160,2013-07-06 00:55:00
8:55 PM,73.0,61.0,66,29.97,10.0,SE,5.8,-,N/A,,Clear,130,2013-07-06 01:55:00
9:55 PM,72.0,62.1,71,29.99,10.0,SSE,8.1,-,N/A,,Clear,150,2013-07-06 02:55:00
10:55 PM,70.0,62.1,76,30.00,10.0,SE,5.8,-,N/A,,Clear,140,2013-07-06 03:55:00
11:55 PM,69.1,61.0,75,30.01,10.0,SSE,6.9,-,N/A,,Clear,150,2013-07-06 04:55:00